Location: Unspecified
(41.8839°N, 0.0000°E)
Time: 21:20:47
(UTC+00:00)

ERS 2 DEB - Visible Passes

Search period start: 04 April 2026 00:00
Search period end: 14 April 2026 00:00
Orbit: 710 x 715 km, 98.3° (Epoch: 28 March)

Date Brightness Start Highest point End Pass type
(mag) Time Alt. Az. Time Alt. Az. Time Alt. Az.
4 Apr ? 03:14:40 10° NNE 03:18:59 32° E 03:22:43 13° SSE visible
4 Apr ? 04:52:41 10° N 04:56:47 28° WNW 05:00:53 10° SW visible
5 Apr ? 03:59:58 10° NNE 04:04:49 90° W 04:09:07 13° SSW visible
6 Apr ? 03:08:19 10° NE 03:12:26 27° E 03:16:26 10° SSE visible
6 Apr ? 04:46:04 10° N 04:50:21 33° WNW 04:54:37 10° SW visible
7 Apr ? 03:53:27 10° NNE 03:58:18 79° ESE 04:02:49 12° S visible
8 Apr ? 03:01:58 10° NE 03:05:51 24° E 03:09:43 10° SSE visible
8 Apr ? 04:39:25 10° N 04:43:51 37° WNW 04:48:16 10° SW visible
9 Apr ? 03:46:55 10° NNE 03:51:45 68° ESE 03:56:28 10° S visible
10 Apr ? 02:55:38 10° NE 02:59:14 21° E 03:02:48 10° SE visible
10 Apr ? 04:32:46 10° N 04:37:19 43° WNW 04:41:52 10° SW visible
11 Apr ? 03:40:23 10° NNE 03:45:09 58° E 03:49:53 10° S visible
12 Apr ? 02:49:20 10° NE 02:52:35 18° E 02:55:48 10° SE visible
12 Apr ? 04:26:06 10° N 04:30:46 50° WNW 04:35:24 10° SW visible
13 Apr ? 03:33:50 10° NNE 03:38:32 49° E 03:43:11 10° S visible
